Location: Kra?nica
(53.4833°N, 14.6167°E)
Time: 20:28:08
(UTC+00:00)

Cosmos 1782 Rocket - Pass Details

Date: 23 May 2024
Orbit: 602 x 629 km, 82.5° (Epoch: 21 June)

Event Time Altitude Azimuth Distance (km) Brightness Sun altitude
Rises 00:11:37 0° 352° (N) 2,907 8.2 -14.2°
Reaches altitude 10° 00:13:57 10° 358° (N) 1,992 7.3 -14.1°
Maximum altitude 00:18:12 47° 73° (ENE) 817 4.4 -13.9°
Drops below altitude 10° 00:22:24 10° 148° (SSE) 1,960 5.8 -13.7°
Enters shadow 00:22:43 - 149° (SSE) 2,079 5.9 -13.7°
